CW1740 Weather Reports


time (UTC)temp
C
wind
direction
speed
KPH
gust
KPH
rain 1hr
cm
rain 24hr
cm
rain mn
cm
humidity
%
barometer
mb
20260906021530 23 360 0.0 0.0 0.00 0.00 0.00 91 1013.5
20260906020028 23 360 0.0 1.6 0.00 0.00 0.00 90 1013.4
20260906014527 23 360 0.0 0.0 0.00 0.00 0.00 89 1013.3
20260906013024 24 360 0.0 6.4 0.00 0.00 0.00 88 1012.9
20260906011524 25 360 0.0 12.9 0.00 0.00 0.00 87 1012.9
20260906010041 25 360 1.6 14.5 0.00 0.00 0.00 86 1012.9
20260906004523 25 360 0.0 9.7 0.00 0.00 0.00 85 1012.7
20260906003022 26 360 0.0 9.7 0.00 0.00 0.00 83 1012.5
20260906001530 27 360 0.0 1.6 0.00 0.00 0.00 82 1012.4
20260906000023 27 360 0.0 6.4 0.00 0.00 0.00 80 1012.5
20260905234521 28 360 0.0 6.4 0.00 0.00 0.00 78 1012.3
20260905233021 28 360 0.0 9.7 0.00 0.00 0.00 77 1012.0
20260905231520 29 360 0.0 1.6 0.00 0.00 0.00 77 1011.8
20260905230031 30 360 0.0 8.0 0.00 0.00 0.00 76 1011.8
20260905224520 30 360 0.0 8.0 0.00 0.00 0.00 76 1011.8
20260905223018 30 360 0.0 9.7 0.00 0.00 0.00 76 1011.8
20260905221517 31 360 0.0 8.0 0.00 0.00 0.00 73 1011.8
20260905220022 32 360 0.0 6.4 0.00 0.00 0.00 72 1011.6
20260905214517 32 360 0.0 1.6 0.00 0.00 0.00 70 1011.5
20260905213016 32 360 0.0 3.2 0.00 0.00 0.00 68 1011.5
20260905211539 32 360 0.0 14.5 0.00 0.00 0.00 69 1011.4
20260905210017 32 360 0.0 4.8 0.00 0.00 0.00 70 1011.4
20260905204515 32 360 0.0 3.2 0.00 0.00 0.00 70 1011.5
20260905203015 32 360 0.0 3.2 0.00 0.00 0.00 72 1011.8
20260905201515 32 360 0.0 3.2 0.00 0.00 0.00 69 1011.8
20260905200014 32 360 0.0 1.6 0.00 0.00 0.00 73 1011.8
20260905194514 32 360 0.0 1.6 0.00 0.00 0.00 71 1011.8
20260905193012 32 360 0.0 1.6 0.00 0.00 0.00 68 1011.9
20260905191511 32 360 0.0 3.2 0.00 0.00 0.00 68 1012.0
20260905190013 32 360 0.0 1.6 0.00 0.00 0.00 70 1012.1
20260905184509 32 360 0.0 4.8 0.00 0.00 0.00 72 1012.2
20260905183008 32 360 0.0 3.2 0.00 0.00 0.00 70 1012.3
20260905181507 32 360 0.0 1.6 0.00 0.00 0.00 71 1012.4
20260905180004 32 360 0.0 0.0 0.00 0.00 0.00 71 1012.4
20260905174503 32 360 0.0 4.8 0.00 0.00 0.00 72 1012.5
20260905173105 32 360 0.0 1.6 0.00 0.00 0.00 71 1012.6
20260905171559 32 360 0.0 1.6 0.00 0.00 0.00 73 1012.6
20260905170059 31 360 0.0 1.6 0.00 0.00 0.00 72 1012.8
20260905164555 31 360 0.0 3.2 0.00 0.00 0.00 74 1012.9
20260905163052 31 360 0.0 3.2 0.00 0.00 0.00 75 1012.8
20260905161550 31 360 0.0 3.2 0.00 0.00 0.00 75 1012.9
20260905160047 31 360 0.0 0.0 0.00 0.00 0.00 77 1012.9
20260905154545 31 360 0.0 1.6 0.00 0.00 0.00 77 1012.8
20260905153042 30 360 0.0 1.6 0.00 0.00 0.00 75 1012.6
20260905151546 30 360 0.0 0.0 0.00 0.00 0.00 75 1012.7
20260905150036 30 360 0.0 1.6 0.00 0.00 0.00 77 1012.6
20260905144532 29 360 0.0 1.6 0.00 0.00 0.00 76 1012.5
20260905143032 29 360 0.0 1.6 0.00 0.00 0.00 77 1012.4
20260905141528 28 360 0.0 1.6 0.00 0.00 0.00 80 1012.2
20260905140021 28 360 0.0 0.0 0.00 0.00 0.00 81 1012.3
20260905134517 27 360 0.0 0.0 0.00 0.00 0.00 85 1012.3
20260905133013 27 360 0.0 1.6 0.00 0.00 0.00 87 1012.3
20260905131509 26 360 0.0 0.0 0.00 0.00 0.00 90 1012.3
20260905130004 25 360 0.0 0.0 0.00 0.00 0.00 92 1012.2
20260905124502 24 360 0.0 0.0 0.00 0.00 0.00 94 1012.0
20260905123058 23 360 0.0 0.0 0.00 0.00 0.00 95 1012.0
20260905121556 23 360 0.0 1.6 0.00 0.00 0.00 95 1011.9
20260905120051 23 360 0.0 0.0 0.00 0.00 0.00 95 1011.6
20260905114550 23 360 0.0 0.0 0.00 0.00 0.00 95 1011.4
20260905113049 23 360 0.0 0.0 0.00 0.00 0.00 94 1011.4
20260905111547 23 360 0.0 0.0 0.00 0.00 0.00 94 1011.4
20260905110105 23 360 0.0 0.0 0.00 0.00 0.00 95 1011.3
20260905104545 23 360 0.0 0.0 0.00 0.00 0.00 94 1011.3
20260905103049 23 360 0.0 0.0 0.00 0.00 0.00 94 1011.4
20260905101601 23 360 0.0 0.0 0.00 0.00 0.00 94 1011.4
20260905100044 23 360 0.0 0.0 0.00 0.00 0.00 95 1011.3
20260905094543 24 360 0.0 0.0 0.00 0.00 0.00 95 1011.5
20260905093044 24 360 0.0 0.0 0.00 0.00 0.00 95 1011.5
20260905091551 24 360 0.0 0.0 0.00 0.00 0.00 95 1011.5
20260905090040 23 360 0.0 0.0 0.00 0.00 0.00 95 1011.4
20260905084540 23 360 0.0 1.6 0.00 0.00 0.00 95 1011.5
20260905083037 23 360 0.0 0.0 0.00 0.00 0.00 94 1011.7
20260905081536 23 360 0.0 0.0 0.00 0.00 0.00 94 1011.6
20260905080035 24 360 0.0 0.0 0.00 0.00 0.00 94 1011.7
20260905074536 24 360 0.0 0.0 0.00 0.00 0.00 94 1011.7
20260905073034 23 360 0.0 0.0 0.00 0.00 0.00 94 1011.7
20260905071535 24 360 0.0 0.0 0.00 0.00 0.00 94 1011.8
20260905070035 24 360 0.0 0.0 0.00 0.00 0.00 94 1011.9
20260905064530 24 360 0.0 0.0 0.00 0.00 0.00 94 1011.9
20260905063029 24 360 0.0 0.0 0.00 0.00 0.00 94 1011.9
20260905061527 24 360 0.0 0.0 0.00 0.00 0.00 93 1012.0
20260905060026 24 360 0.0 0.0 0.00 0.00 0.00 93 1012.1
20260905054531 25 360 0.0 0.0 0.00 0.00 0.00 93 1012.3
20260905053023 25 360 0.0 0.0 0.00 0.00 0.00 92 1012.3
20260905051520 25 360 0.0 0.0 0.00 0.00 0.00 92 1012.1
20260905050023 25 360 0.0 0.0 0.00 0.00 0.00 92 1012.2
20260905044520 25 360 0.0 0.0 0.00 0.00 0.00 92 1012.1
20260905043021 25 360 0.0 0.0 0.00 0.00 0.00 92 1012.2
20260905041519 25 360 0.0 0.0 0.00 0.00 0.00 92 1012.1
20260905040029 25 360 0.0 0.0 0.00 0.00 0.00 91 1012.0
20260905034526 25 360 0.0 0.0 0.00 0.00 0.00 91 1011.9
20260905033016 25 360 0.0 0.0 0.00 0.00 0.00 90 1012.1
20260905031516 26 360 0.0 0.0 0.00 0.00 0.00 90 1012.0
20260905030016 26 360 0.0 0.0 0.00 0.00 0.00 90 1012.0
20260905024517 26 360 0.0 0.0 0.00 0.00 0.00 89 1011.9
20260905023016 26 360 0.0 0.0 0.00 0.00 0.00 87 1011.8